EN

Hourly Weather Allmendingen

Today, 24 January, Sunday

Time Temperature Precipitation Wind Pressure Humidity
00:00 -2°C° 0 mm 1 mps 693 mmHg 93%
01:00 -2°C° 0 mm 1 mps 693 mmHg 93%
02:00 -4°C° 0.1 mm 3 mps 693 mmHg 93%
03:00 -4°C° 0.1 mm 4 mps 693 mmHg 94%
04:00 -4°C° 0.1 mm 5 mps 693 mmHg 95%
05:00 -5°C° 0.3 mm 6 mps 694 mmHg 93%
06:00 -6°C° 0.3 mm 7 mps 694 mmHg 92%
07:00 -6°C° 0.3 mm 8 mps 695 mmHg 91%
08:00 -6°C° 0.1 mm 7 mps 695 mmHg 90%
09:00 -4°C° 0.1 mm 6 mps 696 mmHg 89%
10:00 -4°C° 0.1 mm 5 mps 696 mmHg 88%
11:00 -4°C° 0 mm 5 mps 696 mmHg 86%
12:00 -2°C° 0 mm 4 mps 696 mmHg 84%
13:00 -2°C° 0 mm 4 mps 696 mmHg 82%
14:00 -1°C° 0 mm 3 mps 696 mmHg 84%
15:00 -2°C° 0 mm 2 mps 696 mmHg 85%
16:00 0°C° 0 mm 1 mps 696 mmHg 87%
17:00 0°C° 0 mm 1 mps 696 mmHg 88%
18:00 -1°C° 0 mm 1 mps 696 mmHg 90%
19:00 -2°C° 0 mm 1 mps 696 mmHg 91%
20:00 -1°C° 0 mm 1 mps 696 mmHg 91%
21:00 -1°C° 0 mm 1 mps 696 mmHg 92%
22:00 -3°C° 0 mm 2 mps 696 mmHg 93%
23:00 -3°C° 0.1 mm 2 mps 697 mmHg 93%

Tomorrow, 25 January, Monday

Time Temperature Precipitation Wind Pressure Humidity
00:00 -4°C° 0.1 mm 3 mps 697 mmHg 93%
01:00 -4°C° 0.1 mm 3 mps 697 mmHg 93%
02:00 -4°C° 0.3 mm 4 mps 697 mmHg 93%
03:00 -4°C° 0.3 mm 4 mps 697 mmHg 93%
04:00 -4°C° 0.3 mm 4 mps 698 mmHg 94%
05:00 -4°C° 0.2 mm 4 mps 698 mmHg 93%
06:00 -5°C° 0.2 mm 4 mps 699 mmHg 93%
07:00 -5°C° 0.2 mm 4 mps 699 mmHg 93%
08:00 -5°C° 0.1 mm 4 mps 700 mmHg 92%
09:00 -4°C° 0.1 mm 4 mps 701 mmHg 92%
10:00 -5°C° 0.1 mm 5 mps 701 mmHg 91%
11:00 -5°C° 0.2 mm 5 mps 702 mmHg 89%
12:00 -4°C° 0.2 mm 6 mps 702 mmHg 87%
13:00 -4°C° 0.2 mm 6 mps 703 mmHg 85%
14:00 -4°C° 0.1 mm 6 mps 703 mmHg 84%
15:00 -4°C° 0.1 mm 5 mps 703 mmHg 83%
16:00 -5°C° 0.1 mm 5 mps 703 mmHg 83%
17:00 -5°C° 0.4 mm 5 mps 703 mmHg 86%
18:00 -5°C° 0.4 mm 5 mps 704 mmHg 89%
19:00 -5°C° 0.4 mm 6 mps 704 mmHg 93%
20:00 -5°C° 0.4 mm 6 mps 704 mmHg 92%
21:00 -5°C° 0.4 mm 6 mps 704 mmHg 92%
22:00 -5°C° 0.4 mm 6 mps 705 mmHg 92%
23:00 -5°C° 0.2 mm 6 mps 705 mmHg 92%

Day after tomorrow, 26 January, Tuesday

Time Temperature Precipitation Wind Pressure Humidity
00:00 -5°C° 0.2 mm 5 mps 705 mmHg 92%
01:00 -5°C° 0.2 mm 5 mps 705 mmHg 93%
02:00 -5°C° 0.2 mm 5 mps 705 mmHg 92%
03:00 -5°C° 0.2 mm 6 mps 706 mmHg 92%
04:00 -5°C° 0.2 mm 6 mps 706 mmHg 92%
05:00 -5°C° 0.2 mm 6 mps 706 mmHg 91%
06:00 -6°C° 0.2 mm 7 mps 706 mmHg 91%
07:00 -6°C° 0.2 mm 7 mps 707 mmHg 90%
08:00 -6°C° 0.2 mm 7 mps 707 mmHg 90%
09:00 -4°C° 0.2 mm 7 mps 707 mmHg 89%
10:00 -4°C° 0.2 mm 7 mps 708 mmHg 89%
11:00 -4°C° 0.1 mm 7 mps 708 mmHg 89%
12:00 -3°C° 0.1 mm 6 mps 708 mmHg 88%
13:00 -3°C° 0.1 mm 6 mps 708 mmHg 88%
14:00 -2°C° 0.1 mm 5 mps 708 mmHg 88%
15:00 -2°C° 0.1 mm 4 mps 708 mmHg 88%
16:00 -1°C° 0.1 mm 3 mps 708 mmHg 88%
17:00 -2°C° 0 mm 3 mps 708 mmHg 89%
18:00 -2°C° 0 mm 3 mps 708 mmHg 90%
19:00 -4°C° 0 mm 3 mps 708 mmHg 91%
20:00 -4°C° 0 mm 3 mps 708 mmHg 91%
21:00 -3°C° 0 mm 4 mps 708 mmHg 91%
22:00 -3°C° 0 mm 4 mps 708 mmHg 91%
23:00 -4°C° 0.3 mm 5 mps 707 mmHg 92%

27 January, Wednesday

Time Temperature Precipitation Wind Pressure Humidity
00:00 -4°C° 0.3 mm 5 mps 706 mmHg 94%
01:00 -4°C° 0.3 mm 6 mps 706 mmHg 95%
02:00 -3°C° 0.3 mm 7 mps 705 mmHg 96%
03:00 -3°C° 0.3 mm 7 mps 704 mmHg 96%
04:00 -4°C° 0.3 mm 8 mps 703 mmHg 97%
05:00 -2°C° 0.9 mm 8 mps 703 mmHg 97%
06:00 -2°C° 0.9 mm 7 mps 703 mmHg 98%
07:00 -1°C° 0.9 mm 7 mps 703 mmHg 98%
08:00 -1°C° 0.2 mm 7 mps 704 mmHg 97%
09:00 -1°C° 0.2 mm 7 mps 705 mmHg 96%
10:00 -1°C° 0.2 mm 7 mps 705 mmHg 95%
11:00 -1°C° 0.1 mm 8 mps 706 mmHg 94%
12:00 0°C° 0.1 mm 8 mps 706 mmHg 92%
13:00 0°C° 0.1 mm 8 mps 707 mmHg 91%
14:00 0°C° 0.1 mm 7 mps 707 mmHg 91%
15:00 -1°C° 0.1 mm 6 mps 708 mmHg 92%
16:00 -1°C° 0.1 mm 6 mps 708 mmHg 93%
17:00 0°C° 0.1 mm 5 mps 709 mmHg 93%
18:00 0°C° 0.1 mm 5 mps 710 mmHg 93%
19:00 0°C° 0.1 mm 5 mps 710 mmHg 93%
20:00 0°C° 0.1 mm 5 mps 710 mmHg 92%
21:00 0°C° 0.1 mm 5 mps 711 mmHg 91%
22:00 0°C° 0.1 mm 5 mps 711 mmHg 90%
23:00 -1°C° 0 mm 5 mps 710 mmHg 90%

28 January, Thursday

Time Temperature Precipitation Wind Pressure Humidity
00:00 -1°C° 0 mm 4 mps 710 mmHg 91%
01:00 -1°C° 0 mm 4 mps 709 mmHg 91%
02:00 -1°C° 0 mm 4 mps 709 mmHg 91%
03:00 -1°C° 0 mm 4 mps 708 mmHg 90%
04:00 -1°C° 0 mm 4 mps 708 mmHg 90%
05:00 -1°C° 0.2 mm 5 mps 707 mmHg 90%
06:00 -1°C° 0.2 mm 5 mps 707 mmHg 90%
07:00 -2°C° 0.2 mm 6 mps 706 mmHg 91%
08:00 -1°C° 0.6 mm 7 mps 706 mmHg 91%
09:00 0°C° 0.6 mm 8 mps 706 mmHg 91%
10:00 0°C° 0.6 mm 8 mps 705 mmHg 92%
11:00 +1°C° 0 mm 8 mps 705 mmHg 91%
12:00 +2°C° 0 mm 8 mps 705 mmHg 90%
13:00 +4°C° 0 mm 8 mps 705 mmHg 88%
14:00 +2°C° 0 mm 8 mps 704 mmHg 89%
15:00 +3°C° 0 mm 7 mps 704 mmHg 89%
16:00 +3°C° 0 mm 7 mps 704 mmHg 89%
17:00 +2°C° 0.6 mm 7 mps 704 mmHg 90%
18:00 +2°C° 0.6 mm 7 mps 704 mmHg 91%
19:00 0°C° 0.6 mm 7 mps 704 mmHg 93%

29 January, Friday

Time Temperature Precipitation Wind Pressure Humidity
Show more